Mineralnyye Vody Airport

Jump to: basic info | weather | frequencies | runways | comments

Related pages: nearby airports | nearby navaids | notams | map

Basic information (top)

Codes: MRV URMM
Location: lon 44.225101, lat 43.081902, elev 1,054 ft / 321 m msl
Status: medium_airport
Scheduled airline service: yes
Links: Wikipedia Mobile

Weather (top)

Current conditions (rec'd 2014/10/22 06:00Z):

URMM 220600Z 26004MPS 9999 SCT040 BKN160 10/05 Q1010 R30/70D NOSIG RMK QFE730/0973

Airport forecast (rec'd 2014/10/22 06:00Z):

TAF URMM 220457Z 2206/2306 29003G08MPS 9999 BKN020CB 
      TEMPO 2206/2208 VRB02MPS 3000 -SHRA BKN007 BKN020CB 
     FM220800 10003G08MPS 9999 BKN030

Frequencies (top)

Verify before use: may be inaccurate or out of date.

APP: 119.3 MHz (APP)
ATIS: 127.4 MHz (ATIS)
GND: 121.9 MHz (TAXIING)
RDR: 120.7 MHz (KRUG)
TWR: 128 MHz (START)

Runways (top)

12/30: 12,795 x 197 ft (3,900 x 60 m) — paved — lighted

Latest comments (top)

No comments yet for Mineralnyye Vody Airport

More... (top)

See also NOTAMs and nearby airports and navaids, or visit the Mineralnyye Vody Airport page at the main OurAirports website..